Weather History for KCMX - April, 2014

Change the Weather History Date:

Tuesday, April 29, 2014

  Actual Average (WUND) Record (WUND)
Temperature  
Mean Temperature 40 °F -  
Max Temperature 43 °F - - (-1)
Min Temperature 35 °F - - (-1)
Degree Days  
Heating Degree Days 26    
Moisture  
Dew Point 30 °F    
Average Humidity 78    
Maximum Humidity 96    
Minimum Humidity 37    
Precipitation  
Precipitation 0.23 in - - ()
Sea Level Pressure  
Sea Level Pressure 29.82 in    
Wind  
Wind Speed 19 mph (ENE)    
Max Wind Speed 25 mph    
Max Gust Speed 41 mph    
Visibility 4 miles    
Events Fog , Rain , Snow    
Averages and records for this station are not official NWS values.
T = Trace of Precipitation, MM = Missing Value Source: NWS Daily Summary

Daily Weather History Graph

Daily Weather History Graph

Search for Another Location

Airport or City:

Trip Planner

Search our weather history database for the weather conditions in past years. The results will help you decide how hot, cold, wet, or windy it might be!

Date:

Astronomy

Apr. 29, 2014 Rise Set
Actual Time 6:41 AM EDT 9:02 PM EDT
Civil Twilight 6:07 AM EDT 9:36 PM EDT
Nautical Twilight 5:25 AM EDT 10:18 PM EDT
Astronomical Twilight 4:37 AM EDT 11:06 PM EDT
Moon 6:59 AM EDT (4/29) 9:43 PM EDT (4/29)
Length of Visible Light 15h 28m
Length of Day
14h 21m
New Moon, 0% of the Moon is Illuminated
Apr 29
New Moon
May 6
First Quarter
May 14
Full
May 21
Last Quarter
May 28
New

Hourly Weather History & Observations

Time (EDT) Temp. Windchill Dew Point Humidity Pressure Visibility Wind Dir Wind Speed Gust Speed Precip Events Conditions
12:53 AM 44.1 °F 35.0 °F 19.0 °F 37% 30.01 in 10.0 mi East 24.2 mph 41.4 mph N/A   Clear
1:53 AM 42.1 °F 33.1 °F 19.9 °F 41% 30.01 in 10.0 mi East 20.7 mph 35.7 mph N/A   Clear
2:53 AM 41.0 °F 31.6 °F 21.9 °F 47% 29.98 in 10.0 mi East 20.7 mph 34.5 mph N/A   Clear
3:53 AM 39.9 °F 30.2 °F 21.9 °F 49% 29.95 in 10.0 mi East 20.7 mph 39.1 mph N/A   Clear
4:53 AM 39.0 °F 29.3 °F 23.0 °F 53% 29.95 in 10.0 mi East 19.6 mph 32.2 mph N/A   Clear
5:53 AM 39.0 °F 29.6 °F 24.1 °F 55% 29.92 in 10.0 mi East 18.4 mph 33.4 mph N/A   Scattered Clouds
6:53 AM 39.0 °F 28.0 °F 25.0 °F 57% 29.91 in 10.0 mi East 25.3 mph 39.1 mph N/A   Partly Cloudy
7:53 AM 37.9 °F 28.2 °F 26.1 °F 62% 29.88 in 10.0 mi ENE 18.4 mph 28.8 mph N/A   Mostly Cloudy
8:53 AM 39.2 °F 29.6 °F 26.6 °F 61% 29.84 in 10.0 mi ENE 19.6 mph 29.9 mph N/A   Mostly Cloudy
9:53 AM 39.9 °F 31.1 °F 27.0 °F 60% 29.86 in 10.0 mi ENE 17.3 mph 35.7 mph N/A   Mostly Cloudy
10:53 AM 39.2 °F 30.5 °F 26.6 °F 61% 29.81 in 10.0 mi East 16.1 mph 25.3 mph N/A   Overcast
11:53 AM 39.0 °F 29.3 °F 28.0 °F 65% 29.84 in 10.0 mi ENE 19.6 mph 28.8 mph N/A   Overcast
12:14 PM 37.4 °F 27.8 °F 28.4 °F 70% 29.81 in 10.0 mi ENE 17.3 mph 28.8 mph 0.00 in Rain Light Rain
12:53 PM 36.0 °F 26.0 °F 30.9 °F 82% 29.81 in 5.0 mi ENE 17.3 mph 31.1 mph 0.00 in Snow Light Snow
1:17 PM 35.6 °F 25.5 °F 30.2 °F 81% 29.78 in 2.5 mi ENE 17.3 mph 32.2 mph N/A Snow Light Snow
1:23 PM 35.6 °F 25.5 °F 30.2 °F 81% 29.77 in 1.8 mi ENE 17.3 mph 26.5 mph N/A Snow Light Snow
1:33 PM 35.6 °F 25.2 °F 30.2 °F 81% 29.77 in 2.0 mi ENE 18.4 mph 26.5 mph N/A Snow Light Snow
1:46 PM 35.6 °F 25.2 °F 30.2 °F 81% 29.76 in 1.5 mi ENE 18.4 mph 25.3 mph N/A Snow Light Snow
1:53 PM 35.1 °F 24.1 °F 30.9 °F 85% 29.79 in 1.2 mi ENE 19.6 mph 26.5 mph N/A Snow Light Snow
2:03 PM 35.6 °F 24.8 °F 30.2 °F 81% 29.77 in 3.0 mi ENE 19.6 mph 31.1 mph 0.00 in Snow Light Snow
2:11 PM 35.6 °F 25.2 °F 30.2 °F 81% 29.76 in 1.8 mi ENE 18.4 mph 32.2 mph 0.01 in Snow Light Snow
2:34 PM 35.6 °F 25.2 °F 30.2 °F 81% 29.75 in 3.0 mi NE 18.4 mph 29.9 mph 0.03 in Snow Light Snow
2:53 PM 35.1 °F 25.2 °F 32.0 °F 89% 29.79 in 4.0 mi ENE 16.1 mph 26.5 mph 0.04 in Rain Light Rain
3:53 PM 37.0 °F 27.4 °F 33.1 °F 86% 29.80 in 6.0 mi ENE 17.3 mph 36.8 mph 0.05 in Rain Light Rain
4:44 PM 35.6 °F 25.5 °F 32.0 °F 87% 29.77 in 2.5 mi ENE 17.3 mph 28.8 mph 0.05 in Rain Rain
4:53 PM 36.0 °F 26.3 °F 32.0 °F 86% 29.79 in 3.0 mi ENE 16.1 mph 27.6 mph 0.06 in Rain Light Rain
5:14 PM 35.6 °F 25.9 °F 32.0 °F 87% 29.76 in 2.5 mi ENE 16.1 mph 28.8 mph 0.03 in Rain Light Rain
5:53 PM 36.0 °F 27.1 °F 33.1 °F 89% 29.79 in 2.0 mi ENE 13.8 mph 25.3 mph 0.06 in Rain Light Rain
6:15 PM 35.6 °F 27.1 °F 33.8 °F 93% 29.76 in 3.0 mi ENE 12.7 mph 25.3 mph 0.01 in Rain Light Rain
6:23 PM 35.6 °F 25.5 °F 33.8 °F 93% 29.76 in 1.8 mi ENE 17.3 mph 25.3 mph 0.01 in Rain Light Rain
6:53 PM 37.0 °F 26.4 °F 34.0 °F 89% 29.80 in 1.5 mi East 20.7 mph 28.8 mph 0.02 in   Overcast
7:32 PM 37.4 °F 28.5 °F 35.6 °F 93% 29.76 in 1.2 mi ENE 15.0 mph 24.2 mph 0.00 in   Overcast
7:53 PM 37.9 °F 29.2 °F 36.0 °F 93% 29.79 in 1.2 mi ENE 15.0 mph 25.3 mph 0.00 in   Overcast
8:20 PM 37.4 °F 27.5 °F 35.6 °F 93% 29.77 in 2.0 mi ENE 18.4 mph 27.6 mph N/A   Overcast
8:48 PM 37.4 °F 27.2 °F 35.6 °F 93% 29.77 in 1.8 mi East 19.6 mph 33.4 mph N/A   Overcast
8:53 PM 37.9 °F 28.9 °F 36.0 °F 93% 29.80 in 1.8 mi East 16.1 mph 33.4 mph N/A   Overcast
9:13 PM 37.4 °F 27.5 °F 35.6 °F 93% 29.76 in 0.5 mi East 18.4 mph 26.5 mph N/A Fog Fog
9:28 PM 37.4 °F 29.3 °F 35.6 °F 93% 29.76 in 0.2 mi East 12.7 mph 23.0 mph N/A Fog Fog
9:49 PM 37.4 °F 29.3 °F 35.6 °F 93% 29.76 in 0.2 mi East 12.7 mph - N/A Fog Fog
9:53 PM 37.0 °F 29.8 °F 35.1 °F 93% 29.79 in 0.2 mi East 10.4 mph - N/A Fog Fog
10:53 PM 36.0 °F 28.5 °F 34.0 °F 93% 29.78 in 0.2 mi East 10.4 mph - N/A Fog Fog
11:53 PM 35.1 °F 29.3 °F 34.0 °F 96% 29.76 in 0.2 mi East 6.9 mph - N/A Fog Fog